Regional Weather Roundup
Issued by NWS

Home | Current Version | Previous Version | Text Only | Print | Product List | Glossary On
Versions: 1 2 3 4 5 6 7 8 9 10 11 12 13 14 15 16 17 18 19 20 21 22 23 24 25 26 27 28 29 30 31 32 33 34 35 36 37 38 39 40 41 42 43 44 45 46 47 48 49 50
000
ASUS43 KLOT 010010
RWRIL

ILLINOIS REGIONAL WEATHER ROUNDUP
NATIONAL WEATHER SERVICE CHICAGO/ROMEOVILLE IL
700 PM CDT THU JUL 31 2014

NOTE: "FAIR" INDICATES FEW OR NO CLOUDS BELOW 12,000 FEET WITH NO
SIGNIFICANT WEATHER AND/OR OBSTRUCTIONS TO VISIBILITY.

* THESE STATIONS ARE NOT UNDER NWS QUALITY CONTROL. THEY ALSO MAY NOT
  REPORT WEATHER SUCH AS PRECIPITATION OR FOG.

ILZ001-002-007-009-015-016-024-010100-
NORTHWEST ILLINOIS

CITY           SKY/WX    TMP DP  RH WIND       PRES   REMARKS
MOLINE         MOSUNNY   79  61  53 SW6       30.02F HX  80
6HR MIN TEMP:  79; 6HR MAX TEMP:  84;

STERLING*      SUNNY     79  61  53 NW6       30.04S HX  80
SAVANNA*       SUNNY     80  55  42 W5        30.02S HX  80
$$

ILZ003-004-008-010-011-017-018-010100-
NORTH CENTRAL ILLINOIS

CITY           SKY/WX    TMP DP  RH WIND       PRES   REMARKS
ROCKFORD       SUNNY     77  57  50 W6        30.04R
6HR MIN TEMP:  77; 6HR MAX TEMP:  83;

FREEPORT*      SUNNY     77  61  56 W6        30.05S
ROCHELLE*      SUNNY     78  57  48 W7        30.04S
DE KALB*       SUNNY     75  58  56 W8        30.04S
PERU*          MOSUNNY   78  63  59 W5        30.04S HX  80
$$

ILZ005-006-012>014-019>023-010100-
NORTHEAST ILLINOIS

CITY           SKY/WX    TMP DP  RH WIND       PRES   REMARKS
CHICAGO-OHARE  MOSUNNY   80  55  42 W12       30.01S HX  80
6HR MIN TEMP:  80; 6HR MAX TEMP:  84;

CHICAGO-MIDWAY MOSUNNY   82  57  42 W12       30.02R HX  82
6HR MIN TEMP:  82; 6HR MAX TEMP:  85;

AURORA         SUNNY     77  62  59 W5        30.03S
6HR MIN TEMP:  77; 6HR MAX TEMP:  82;

LANSING*       MOSUNNY   78  61  56 SW9       30.03S
JOLIET*        SUNNY     79  58  49 SW5       30.04S HX  80
WAUKEGAN       SUNNY     78  55  44 VRB3      30.00S
6HR MIN TEMP:  78; 6HR MAX TEMP:  83;

DUPAGE AIRPORT SUNNY     79  58  48 W9        30.02S HX  80
6HR MIN TEMP:  79; 6HR MAX TEMP:  83;

KANKAKEE*      PTSUNNY   77  65  66 CALM      30.05S
WHEELING       SUNNY     80  55  42 W13       30.03R HX  80
6HR MIN TEMP:  80; 6HR MAX TEMP:  84;

MORRIS*        MOSUNNY   79  65  61 W3        30.04R HX  81
ROMEOVILLE*    SUNNY     77  58  52 W8        30.04R
NORTHERLY ISL    N/A     80  54  40 W5          N/A  HX  80
$$

LMZ740>746-010100-
SOUTHERN LAKE MICHIGAN

STATION/POSITION SKY/WX   TEMP    WIND        PRES    VSBY  WAVE
                          AIR SEA DIR/SP/G                  HT/PER
                          (F)     (DEG/KT/KT) (MB)    (MI)  (FT/S)
SOUTHERN BUOY              66 64  180/  8/  8 1016.0R         0
WAUKEGAN HARBOR            80     280/ 10/ 16   N/A
HARRISON CRIB              80     260/ 17/ 19   N/A
BURNHAM HARBOR             80     240/  6/ 13   N/A
CALUMET HARBOR             80     230/  7/ 11 1015.4R
MICHIGAN CITY              75     210/  6/  7   N/A
MICHIGAN CITY 6N           73 71  240/  4/  6   N/A           1
ST. JOSEPH                 73 69  160/  4/  4   N/A           1
$$

ILZ025>027-034>036-040-047-049-050-058-095>099-010100-
WEST-CENTRAL ILLINOIS

CITY           SKY/WX    TMP DP  RH WIND       PRES   REMARKS
QUINCY         SUNNY     78  58  49 CALM      30.05F
GALESBURG*     MOSUNNY   78  65  64 SW5       30.05F HX  80
MACOMB*        SUNNY     77  64  65 CALM      30.07F
JACKSONVILLE*  SUNNY     80  64  57 CALM      30.06S HX  81
PITTSFIELD*    SUNNY     79  63  57 CALM      30.06S HX  80
$$

ILZ028>032-037-038-041>044-048-051>054-059>061-010100-
CENTRAL ILLINOIS

CITY           SKY/WX    TMP DP  RH WIND       PRES   REMARKS
PONTIAC        SUNNY     79  63  57 SW3       30.05S HX  80
DECATUR        SUNNY     78  62  57 CALM      30.06S HX  80
PEORIA         SUNNY     80  60  50 W6        30.05S HX  81
6HR MIN TEMP:  80; 6HR MAX TEMP:  85;

LACON*         SUNNY     78  64  61 CALM      30.03S HX  80
LINCOLN*       SUNNY     81  58  45 CALM      30.02S HX  81
SPRINGFIELD    MOSUNNY   82  62  50 CALM      30.05F HX  83
6HR MIN TEMP:  81; 6HR MAX TEMP:  85;

TAYLORVILLE    SUNNY     79  59  50 CALM      30.05S HX  80
$$

ILZ033-039-045-046-055>057-062-063-010100-
EAST-CENTRAL ILLINOIS

CITY           SKY/WX    TMP DP  RH WIND       PRES   REMARKS
CHAMPAIGN      SUNNY     78  61  55 CALM      30.06F HX  80
DANVILLE*      SUNNY     74  64  69 W3        30.04S
RANTOUL*       SUNNY     77  60  56 CALM      30.07S
MATTOON        SUNNY     78  62  57 NE3       30.05S HX  80
PARIS*         SUNNY     77  68  74 CALM      30.07S
$$

ILZ079-100>102-010100-
SOUTHWEST ILLINOIS

CITY           SKY/WX    TMP DP  RH WIND       PRES   REMARKS
ALTON          MOSUNNY   79  63  57 VRB3      30.05S HX  80
BELLEVILLE     MOSUNNY   82  61  49 CALM      30.03S HX  82
CAHOKIA*       MOSUNNY   82  61  48 SE5       30.03S HX  83
SPARTA*        MOSUNNY   79  61  53 CALM      30.05S HX  80
$$

ILZ064>066-069>071-074>076-080>082-084>086-088>090-092>094-010100-
SOUTH-CENTRAL ILLINOIS

CITY           SKY/WX    TMP DP  RH WIND       PRES   REMARKS
CARBONDALE     PTSUNNY   77  63  61 SW10      30.05S
6HR MIN TEMP:  77; 6HR MAX TEMP:  84; 6HR PCP:  0.01;

CAIRO*         PTSUNNY   77  64  63 SW3       30.06S
EFFINGHAM*     RAIN      78  58  49 SE3       30.05S
MARION         MOSUNNY   79  64  61 S3        30.06F HX  81
MT. VERNON     MOSUNNY   82  59  44 S3        30.06S HX  82
CENTRALIA*     SUNNY     85  57  38 CALM      30.05S HX  84
SALEM*         SUNNY     82  61  47 CALM      30.05S HX  83
METROPOLIS*    PTSUNNY   78  60  53 W6        30.06S
$$

ILZ067-068-072-073-078-083-087-091-010100-
SOUTHEAST ILLINOIS

CITY           SKY/WX    TMP DP  RH WIND       PRES   REMARKS
LAWRENCEVILLE  SUNNY     80  61  52 NW3       30.06S HX  81
FLORA*         SUNNY     77  65  65 SE3       30.05S
FAIRFIELD*     MOSUNNY   81  64  57 CALM      30.05S HX  82
HARRISBURG*    MOSUNNY   78  65  64 CALM      30.06S HX  80
ROBINSON*      SUNNY     81  64  57 CALM      30.06S HX  82
CARMI*         PTSUNNY   79  70  73 CALM      30.05S HX  81
$$

ABBREVIATIONS USED IN REMARKS
   TC - TEMPERATURE IN CELSIUS
  WCI - WIND CHILL INDEX
   HX - HEAT INDEX
  VSB - VISIBILITY
$$




USA.gov is the U.S. government's official web portal to all federal, state and local government web resources and services.